Location: Aurora Center
(43.5271°N, 98.5894°W)
Time: 22:03:27
(UTC-05:00)

Vanguard 1 Rocket - Pass Details

Date: 16 July 2024
Orbit: 651 x 4215 km, 34.3° (Epoch: 17 April)

Event Time Altitude Azimuth Distance (km) Brightness Sun altitude
Rises 00:35:02 0° 261° (W) 3,474 10.5 -23.5°
Reaches altitude 10° 00:37:13 10° 253° (WSW) 2,761 9.8 -23.6°
Maximum altitude 00:43:25 42° 184° (S) 1,929 8.5 -23.9°
Enters shadow 00:45:03 39° 160° (SSE) 2,171 8.7 -24.0°
Exits shadow 00:54:18 11° 120° (ESE) 4,831 10.7 -24.3°
Drops below altitude 10° 00:54:35 10° 120° (ESE) 4,919 10.7 -24.3°
Sets 00:59:56 0° 115° (ESE) 6,543 11.5 -24.5°
